contact:dominique.lefevre@mio.osupytheas.fr, maurice.libes@osupytheas.fr, didier.mallarino@osupytheas.fr
Project:EMSO http://www.emso-fr.org/EMSO-France
Depth: 2436.0 m
Title:EMSO Ligure Ouest : Data MII capteur AQUADOPP
Date,Latitude,Longitude,X_East,Y_North,Z_Up,Amplitude_X,Amplitude_Y,Amplitude_Z,Batterie,SoundSpeed,Heading,Pitch,Roll,Pressure,TIS,Speed,Direction
, degrees North, degrees East, m.s-1, m.s-1,m.s-1, 1, 1, 1, Volt, m.s-1, degree, degree, degree, dbar, degree_C, m.s-1, degree
2023-03-19T00:04:03,42.805,6.029,-0.054,0.016,-0.002,104.0,103.0,102.0,13.4,1505.2,324.4,-0.8,1.8,2471.314,13.28,0.056,286.5
2023-03-19T00:07:03,42.805,6.029,-0.032,0.027,0.0,105.0,105.0,102.0,13.4,1505.2,328.3,-0.8,1.8,2471.277,13.28,0.041,310.2
2023-03-19T00:10:03,42.805,6.029,-0.038,-0.011,-0.044,103.0,105.0,101.0,13.4,1505.2,325.2,-0.7,1.8,2471.312,13.29,0.039,253.9
2023-03-19T00:13:03,42.805,6.029,-0.041,0.01,-0.059,104.0,104.0,102.0,13.4,1505.2,327.4,-0.8,1.8,2471.258,13.29,0.042,283.7
2023-03-19T00:16:03,42.805,6.029,-0.036,0.008,-0.037,104.0,102.0,102.0,13.3,1505.2,326.5,-0.7,1.8,2471.252,13.29,0.036,282.5
2023-03-19T00:19:03,42.805,6.029,-0.028,0.013,-0.034,104.0,103.0,102.0,13.3,1505.2,341.2,-0.8,1.8,2471.263,13.29,0.03,294.9
2023-03-19T00:22:03,42.805,6.029,-0.025,-0.007,-0.036,103.0,103.0,103.0,13.4,1505.2,320.7,-0.8,1.8,2471.238,13.29,0.025,254.4
2023-03-19T00:25:03,42.805,6.029,-0.064,-0.011,-0.061,103.0,103.0,102.0,13.3,1505.2,322.0,-0.8,1.8,2471.241,13.29,0.064,260.2
2023-03-19T00:28:03,42.805,6.029,-0.043,-0.007,-0.054,104.0,102.0,103.0,13.4,1505.2,321.1,-0.8,1.8,2471.27,13.29,0.043,260.8
2023-03-19T00:31:03,42.805,6.029,-0.04,0.003,-0.019,104.0,103.0,102.0,13.4,1505.2,330.1,-0.7,1.8,2471.231,13.29,0.04,274.3
2023-03-19T00:34:03,42.805,6.029,-0.057,0.028,-0.002,105.0,104.0,104.0,13.4,1505.2,335.1,-0.8,1.8,2471.258,13.29,0.063,296.2
2023-03-19T00:37:03,42.805,6.029,-0.044,0.0,-0.017,104.0,103.0,104.0,13.3,1505.2,323.4,-0.8,1.8,2471.253,13.29,0.044,270.0
2023-03-19T00:40:03,42.805,6.029,-0.043,0.01,-0.02,104.0,104.0,102.0,13.3,1505.2,321.7,-0.8,1.8,2471.251,13.29,0.044,283.1
2023-03-19T00:43:03,42.805,6.029,-0.049,0.001,-0.026,103.0,103.0,102.0,13.4,1505.2,320.9,-0.8,1.8,2471.27,13.29,0.049,271.2
2023-03-19T00:46:03,42.805,6.029,-0.029,0.044,-0.005,104.0,104.0,101.0,13.4,1505.2,338.5,-0.7,1.8,2471.271,13.29,0.052,326.6
2023-03-19T00:49:03,42.805,6.029,-0.049,0.013,-0.032,104.0,104.0,102.0,13.4,1505.2,319.1,-0.8,1.8,2471.273,13.29,0.05,284.9
2023-03-19T00:52:03,42.805,6.029,-0.048,0.01,-0.025,104.0,103.0,102.0,13.4,1505.2,317.9,-0.7,1.8,2471.258,13.29,0.049,281.8
2023-03-19T00:55:03,42.805,6.029,-0.043,0.013,-0.017,103.0,104.0,102.0,13.3,1505.2,315.0,-0.8,1.8,2471.275,13.29,0.044,286.8
2023-03-19T00:58:03,42.805,6.029,-0.069,0.011,-0.024,104.0,103.0,102.0,13.4,1505.2,332.1,-0.7,1.8,2471.254,13.29,0.069,279.1
2023-03-19T01:04:03,42.805,6.029,-0.042,0.032,-0.032,105.0,103.0,103.0,13.4,1505.2,327.7,-0.8,1.8,2471.292,13.28,0.052,307.3
2023-03-19T01:07:03,42.805,6.029,-0.04,0.007,-0.039,104.0,103.0,103.0,13.4,1505.2,321.7,-0.8,1.8,2471.315,13.28,0.04,279.9
2023-03-19T01:10:03,42.805,6.029,-0.031,0.006,-0.002,105.0,104.0,101.0,13.4,1505.2,327.5,-0.7,1.8,2471.277,13.29,0.031,281.0
2023-03-19T01:13:03,42.805,6.029,-0.039,0.008,-0.052,104.0,104.0,102.0,13.4,1505.2,325.3,-0.8,1.8,2471.328,13.29,0.039,281.6
2023-03-19T01:16:03,42.805,6.029,-0.018,0.03,-0.042,103.0,102.0,103.0,13.4,1505.2,342.8,-0.7,1.8,2471.257,13.29,0.034,329.0
2023-03-19T01:19:03,42.805,6.029,-0.027,0.006,-0.045,104.0,104.0,101.0,13.4,1505.2,324.7,-0.8,1.9,2471.312,13.29,0.027,282.5
2023-03-19T01:22:03,42.805,6.029,-0.028,0.012,-0.002,103.0,104.0,102.0,13.4,1505.2,325.4,-0.8,1.8,2471.294,13.29,0.03,293.2
2023-03-19T01:25:03,42.805,6.029,-0.06,-0.002,-0.024,103.0,103.0,102.0,13.4,1505.2,325.7,-0.7,1.8,2471.31,13.29,0.06,268.1
2023-03-19T01:28:03,42.805,6.029,-0.026,0.037,-0.04,104.0,103.0,103.0,13.3,1505.2,335.1,-0.8,1.8,2471.289,13.29,0.045,324.9
2023-03-19T01:31:03,42.805,6.029,-0.025,0.001,-0.015,104.0,104.0,102.0,13.4,1505.2,330.5,-0.8,1.8,2471.332,13.29,0.025,272.3
2023-03-19T01:34:03,42.805,6.029,-0.039,0.018,-0.035,104.0,104.0,102.0,13.4,1505.2,324.3,-0.8,1.8,2471.324,13.29,0.042,294.8
2023-03-19T01:37:03,42.805,6.029,-0.044,-0.001,-0.067,104.0,103.0,103.0,13.4,1505.2,328.6,-0.8,1.8,2471.29,13.29,0.044,268.7
2023-03-19T01:40:03,42.805,6.029,-0.028,0.029,-0.004,104.0,103.0,102.0,13.3,1505.2,327.2,-0.8,1.8,2471.283,13.29,0.04,316.0
2023-03-19T01:43:03,42.805,6.029,-0.04,0.023,-0.027,104.0,103.0,102.0,13.3,1505.2,342.5,-0.8,1.8,2471.327,13.29,0.046,299.9
2023-03-19T01:46:03,42.805,6.029,-0.059,0.023,-0.03,103.0,104.0,103.0,13.4,1505.2,329.7,-0.8,1.8,2471.316,13.29,0.063,291.3
2023-03-19T01:49:03,42.805,6.029,-0.034,0.048,-0.006,104.0,103.0,102.0,13.4,1505.2,339.5,-0.7,1.8,2471.333,13.29,0.058,324.7
2023-03-19T01:52:03,42.805,6.029,-0.059,0.009,-0.059,104.0,103.0,102.0,13.4,1505.2,321.2,-0.7,1.8,2471.338,13.29,0.059,278.7
2023-03-19T01:55:03,42.805,6.029,-0.049,0.017,-0.018,104.0,103.0,103.0,13.4,1505.2,322.6,-0.7,1.8,2471.299,13.29,0.051,289.1
2023-03-19T01:58:03,42.805,6.029,-0.046,0.04,-0.059,103.0,103.0,101.0,13.4,1505.2,341.5,-0.8,1.8,2471.311,13.29,0.06,311.0
2023-03-19T02:04:03,42.805,6.029,-0.03,0.006,-0.019,103.0,103.0,102.0,13.4,1505.2,323.8,-0.8,1.8,2471.326,13.28,0.03,281.3
2023-03-19T02:07:03,42.805,6.029,-0.039,0.013,-0.04,104.0,103.0,102.0,13.4,1505.2,324.8,-0.7,1.9,2471.371,13.29,0.041,288.4
2023-03-19T02:10:03,42.805,6.029,-0.032,0.01,-0.05,105.0,102.0,103.0,13.4,1505.2,331.7,-0.8,1.8,2471.342,13.29,0.033,287.4
2023-03-19T02:13:03,42.805,6.029,-0.01,-0.001,-0.034,105.0,104.0,103.0,13.4,1505.2,323.8,-0.8,1.8,2471.345,13.29,0.01,264.3
2023-03-19T02:16:03,42.805,6.029,-0.02,0.025,-0.009,104.0,103.0,103.0,13.3,1505.2,340.4,-0.7,1.8,2471.298,13.29,0.032,321.3
2023-03-19T02:19:03,42.805,6.029,-0.03,0.019,-0.021,105.0,103.0,103.0,13.3,1505.2,333.8,-0.8,1.8,2471.32,13.29,0.035,302.3
2023-03-19T02:22:03,42.805,6.029,-0.05,0.015,-0.019,103.0,101.0,105.0,13.4,1505.2,329.2,-0.8,1.8,2471.378,13.29,0.052,286.7
2023-03-19T02:25:03,42.805,6.029,-0.022,0.014,-0.042,103.0,103.0,103.0,13.4,1505.2,339.9,-0.8,1.8,2471.31,13.29,0.026,302.5
2023-03-19T02:28:03,42.805,6.029,-0.035,0.006,-0.024,103.0,106.0,101.0,13.4,1505.2,324.5,-0.8,1.8,2471.363,13.29,0.035,279.7
2023-03-19T02:31:03,42.805,6.029,-0.037,0.006,-0.039,103.0,102.0,102.0,13.3,1505.2,323.1,-0.8,1.8,2471.347,13.29,0.037,279.2
2023-03-19T02:34:03,42.805,6.029,-0.052,0.027,-0.034,103.0,103.0,102.0,13.3,1505.2,319.2,-0.7,1.8,2471.315,13.29,0.058,297.4
2023-03-19T02:37:03,42.805,6.029,-0.057,0.034,-0.003,103.0,105.0,102.0,13.3,1505.2,327.3,-0.7,1.8,2471.37,13.29,0.066,300.8
2023-03-19T02:40:03,42.805,6.029,-0.038,0.011,-0.021,103.0,104.0,102.0,13.3,1505.2,332.2,-0.8,1.8,2471.319,13.29,0.039,286.1
2023-03-19T02:43:03,42.805,6.029,-0.059,0.02,-0.052,102.0,103.0,103.0,13.3,1505.2,324.1,-0.8,1.8,2471.351,13.29,0.062,288.7
2023-03-19T02:46:03,42.805,6.029,-0.047,0.009,-0.021,104.0,103.0,102.0,13.4,1505.2,324.5,-0.7,1.8,2471.383,13.29,0.047,280.8
2023-03-19T02:49:03,42.805,6.029,-0.042,0.026,-0.015,103.0,104.0,102.0,13.4,1505.2,339.9,-0.8,1.8,2471.331,13.29,0.049,301.8
2023-03-19T02:52:03,42.805,6.029,-0.044,0.013,-0.024,105.0,103.0,101.0,13.4,1505.2,319.0,-0.8,1.8,2471.351,13.29,0.045,286.5
2023-03-19T02:55:03,42.805,6.029,-0.038,0.022,0.0,103.0,102.0,102.0,13.4,1505.2,321.0,-0.8,1.8,2471.349,13.29,0.043,300.1
2023-03-19T02:58:03,42.805,6.029,-0.028,0.024,0.01,102.0,102.0,102.0,13.4,1505.2,333.8,-0.8,1.8,2471.348,13.29,0.036,310.6
2023-03-19T03:04:03,42.805,6.029,-0.009,0.026,0.005,103.0,101.0,101.0,13.3,1505.2,336.0,-0.8,1.8,2471.38,13.28,0.027,340.9
2023-03-19T03:07:03,42.805,6.029,-0.034,0.016,-0.001,103.0,102.0,102.0,13.4,1505.2,324.0,-0.8,1.8,2471.404,13.29,0.037,295.2
2023-03-19T03:10:03,42.805,6.029,-0.062,0.023,-0.022,103.0,102.0,101.0,13.4,1505.2,325.4,-0.7,1.8,2471.412,13.29,0.066,290.3
2023-03-19T03:13:03,42.805,6.029,-0.041,0.0,0.008,104.0,103.0,102.0,13.4,1505.2,316.1,-0.8,1.8,2471.437,13.29,0.041,270.0
2023-03-19T03:16:03,42.805,6.029,-0.046,0.005,-0.031,103.0,102.0,102.0,13.4,1505.2,326.0,-0.7,1.8,2471.408,13.29,0.046,276.2
2023-03-19T03:19:03,42.805,6.029,-0.025,0.002,-0.025,103.0,103.0,102.0,13.4,1505.2,326.5,-0.8,1.8,2471.408,13.29,0.025,274.6
2023-03-19T03:22:03,42.805,6.029,-0.023,0.003,-0.022,103.0,102.0,102.0,13.4,1505.2,331.9,-0.8,1.8,2471.388,13.29,0.023,277.4
2023-03-19T03:25:03,42.805,6.029,-0.032,0.017,-0.035,104.0,103.0,102.0,13.4,1505.2,330.2,-0.7,1.8,2471.422,13.29,0.036,298.0
2023-03-19T03:28:03,42.805,6.029,-0.024,0.014,-0.031,103.0,102.0,102.0,13.4,1505.2,321.8,-0.7,1.8,2471.434,13.29,0.027,300.3
2023-03-19T03:31:03,42.805,6.029,-0.032,0.015,-0.006,103.0,103.0,102.0,13.4,1505.2,328.8,-0.7,1.8,2471.438,13.29,0.035,295.1
2023-03-19T03:34:03,42.805,6.029,-0.025,0.018,-0.001,102.0,104.0,102.0,13.4,1505.2,326.5,-0.8,1.8,2471.426,13.29,0.03,305.8
2023-03-19T03:37:03,42.805,6.029,-0.043,0.021,-0.032,104.0,103.0,103.0,13.4,1505.2,331.4,-0.7,1.8,2471.451,13.29,0.047,296.0
2023-03-19T03:40:03,42.805,6.029,-0.022,-0.002,-0.04,104.0,103.0,102.0,13.4,1505.2,331.1,-0.8,1.8,2471.423,13.29,0.022,264.8
2023-03-19T03:43:03,42.805,6.029,-0.049,0.007,-0.001,103.0,104.0,102.0,13.3,1505.2,318.6,-0.8,1.8,2471.431,13.29,0.049,278.1
2023-03-19T03:46:03,42.805,6.029,-0.06,0.003,-0.017,102.0,102.0,103.0,13.4,1505.2,327.2,-0.8,1.8,2471.451,13.29,0.06,272.9
2023-03-19T03:49:03,42.805,6.029,-0.039,0.01,0.0,103.0,102.0,102.0,13.4,1505.2,316.7,-0.8,1.8,2471.404,13.29,0.04,284.4
2023-03-19T03:52:03,42.805,6.029,-0.064,0.012,-0.058,104.0,101.0,102.0,13.4,1505.2,322.9,-0.7,1.8,2471.396,13.29,0.065,280.6
2023-03-19T03:55:03,42.805,6.029,-0.022,0.024,-0.029,104.0,104.0,102.0,13.3,1505.2,327.7,-0.7,1.8,2471.444,13.29,0.032,317.5
2023-03-19T03:58:03,42.805,6.029,-0.029,0.014,-0.03,104.0,102.0,102.0,13.4,1505.2,329.4,-0.8,1.8,2471.45,13.29,0.032,295.8
2023-03-19T04:04:03,42.805,6.029,-0.044,0.005,-0.033,104.0,102.0,102.0,13.3,1505.2,336.3,-0.8,1.8,2471.476,13.28,0.044,276.5
2023-03-19T04:07:03,42.805,6.029,-0.03,0.002,-0.036,103.0,102.0,102.0,13.4,1505.2,327.2,-0.7,1.8,2471.493,13.29,0.03,273.8
2023-03-19T04:10:03,42.805,6.029,-0.034,0.016,-0.021,104.0,103.0,102.0,13.4,1505.2,321.7,-0.8,1.8,2471.496,13.29,0.037,295.2
2023-03-19T04:13:03,42.805,6.029,-0.034,0.031,-0.036,103.0,104.0,102.0,13.4,1505.2,336.3,-0.8,1.8,2471.491,13.29,0.046,312.4
2023-03-19T04:16:03,42.805,6.029,-0.045,0.015,-0.041,103.0,105.0,103.0,13.4,1505.2,339.5,-0.7,1.8,2471.463,13.29,0.047,288.4
2023-03-19T04:19:03,42.805,6.029,-0.047,0.01,-0.018,104.0,103.0,102.0,13.4,1505.2,320.4,-0.7,1.8,2471.46,13.29,0.048,282.0
2023-03-19T04:22:03,42.805,6.029,-0.053,0.002,-0.02,105.0,104.0,104.0,13.4,1505.2,335.1,-0.8,1.8,2471.504,13.29,0.053,272.2
2023-03-19T04:25:03,42.805,6.029,-0.057,0.018,-0.034,103.0,104.0,103.0,13.3,1505.2,326.5,-0.8,1.8,2471.475,13.29,0.059,287.5
2023-03-19T04:28:03,42.805,6.029,-0.029,0.021,-0.03,105.0,101.0,102.0,13.3,1505.2,329.3,-0.8,1.8,2471.463,13.29,0.035,305.9
2023-03-19T04:31:03,42.805,6.029,-0.029,0.013,-0.023,105.0,103.0,103.0,13.3,1505.2,320.9,-0.8,1.8,2471.448,13.29,0.031,294.1
2023-03-19T04:34:03,42.805,6.029,-0.042,0.039,0.011,104.0,102.0,103.0,13.4,1505.2,332.1,-0.8,1.8,2471.48,13.29,0.057,312.9
2023-03-19T04:37:03,42.805,6.029,-0.056,0.029,-0.047,103.0,103.0,102.0,13.4,1505.2,327.9,-0.7,1.8,2471.474,13.29,0.063,297.4
2023-03-19T04:40:03,42.805,6.029,-0.038,0.02,-0.029,104.0,103.0,103.0,13.3,1505.2,324.1,-0.8,1.8,2471.47,13.29,0.042,297.8
2023-03-19T04:43:03,42.805,6.029,-0.049,0.025,-0.032,104.0,102.0,103.0,13.4,1505.2,331.6,-0.8,1.8,2471.485,13.29,0.055,297.0
2023-03-19T04:46:03,42.805,6.029,-0.025,0.02,-0.027,106.0,106.0,102.0,13.4,1505.2,338.2,-0.7,1.8,2471.496,13.29,0.032,308.7
2023-03-19T04:49:03,42.805,6.029,-0.053,0.003,-0.038,105.0,102.0,103.0,13.4,1505.2,322.1,-0.8,1.8,2471.48,13.29,0.053,273.2
2023-03-19T04:52:03,42.805,6.029,-0.037,0.02,-0.022,105.0,102.0,102.0,13.4,1505.2,335.6,-0.8,1.8,2471.459,13.29,0.042,298.4
2023-03-19T04:55:03,42.805,6.029,-0.042,0.005,-0.025,105.0,103.0,102.0,13.4,1505.2,325.5,-0.8,1.8,2471.492,13.29,0.042,276.8
2023-03-19T04:58:03,42.805,6.029,-0.052,0.017,-0.029,104.0,104.0,102.0,13.4,1505.2,318.3,-0.7,1.8,2471.483,13.29,0.054,288.1
2023-03-19T05:04:03,42.805,6.029,-0.028,0.027,0.0,104.0,103.0,102.0,13.4,1505.2,328.6,-0.7,1.8,2471.543,13.28,0.038,314.0
2023-03-19T05:07:03,42.805,6.029,-0.036,-0.007,-0.052,104.0,103.0,102.0,13.3,1505.2,320.6,-0.8,1.8,2471.541,13.28,0.036,259.0
2023-03-19T05:10:03,42.805,6.029,-0.05,0.027,-0.02,105.0,103.0,102.0,13.3,1505.2,333.4,-0.8,1.8,2471.503,13.29,0.056,298.4
2023-03-19T05:13:03,42.805,6.029,-0.036,0.01,-0.016,105.0,103.0,104.0,13.4,1505.2,329.6,-0.8,1.8,2471.507,13.29,0.037,285.5
2023-03-19T05:16:03,42.805,6.029,-0.033,0.024,-0.027,104.0,103.0,102.0,13.3,1505.2,335.2,-0.7,1.8,2471.53,13.29,0.04,306.0
2023-03-19T05:19:03,42.805,6.029,-0.062,0.005,-0.033,104.0,104.0,102.0,13.4,1505.2,319.4,-0.7,1.8,2471.493,13.29,0.062,274.6
2023-03-19T05:22:03,42.805,6.029,-0.04,0.021,-0.061,103.0,103.0,102.0,13.4,1505.2,337.6,-0.7,1.8,2471.489,13.29,0.045,297.7
2023-03-19T05:25:03,42.805,6.029,-0.043,0.017,-0.047,104.0,104.0,102.0,13.3,1505.2,327.4,-0.8,1.8,2471.522,13.29,0.046,291.6
2023-03-19T05:28:03,42.805,6.029,-0.028,0.008,-0.013,105.0,104.0,102.0,13.4,1505.2,335.1,-0.7,1.8,2471.493,13.29,0.029,285.9
2023-03-19T05:31:03,42.805,6.029,-0.037,0.008,-0.033,104.0,103.0,102.0,13.4,1505.2,322.4,-0.8,1.8,2471.534,13.29,0.037,282.2
2023-03-19T05:34:03,42.805,6.029,-0.02,0.006,-0.034,105.0,106.0,102.0,13.4,1505.2,321.0,-0.8,1.8,2471.505,13.29,0.02,286.7
2023-03-19T05:37:03,42.805,6.029,-0.031,0.004,-0.022,104.0,103.0,103.0,13.4,1505.2,319.4,-0.8,1.8,2471.491,13.29,0.031,277.3
2023-03-19T05:40:03,42.805,6.029,-0.028,0.022,-0.033,104.0,103.0,103.0,13.4,1505.2,328.5,-0.8,1.8,2471.496,13.29,0.035,308.2
2023-03-19T05:43:03,42.805,6.029,-0.031,0.003,-0.049,104.0,105.0,104.0,13.4,1505.2,339.9,-0.8,1.9,2471.46,13.29,0.031,275.5
2023-03-19T05:46:03,42.805,6.029,-0.056,0.015,-0.047,104.0,102.0,103.0,13.4,1505.2,327.4,-0.8,1.8,2471.468,13.29,0.057,285.0
2023-03-19T05:49:03,42.805,6.029,-0.019,0.021,-0.034,105.0,103.0,103.0,13.4,1505.2,329.9,-0.8,1.8,2471.491,13.29,0.028,317.9
2023-03-19T05:52:03,42.805,6.029,-0.035,0.011,-0.024,104.0,105.0,103.0,13.3,1505.2,331.8,-0.8,1.8,2471.528,13.29,0.036,287.4
2023-03-19T05:55:03,42.805,6.029,-0.029,0.012,-0.039,104.0,104.0,102.0,13.4,1505.2,331.6,-0.8,1.8,2471.524,13.29,0.031,292.5
2023-03-19T05:58:03,42.805,6.029,-0.04,0.02,-0.029,104.0,103.0,103.0,13.4,1505.2,334.2,-0.8,1.8,2471.485,13.29,0.044,296.6
2023-03-19T06:04:03,42.805,6.029,-0.044,0.017,0.005,104.0,103.0,104.0,13.3,1505.2,332.2,-0.8,1.8,2471.51,13.28,0.047,291.1
2023-03-19T06:07:03,42.805,6.029,-0.015,-0.003,-0.036,103.0,103.0,102.0,13.4,1505.2,316.1,-0.8,1.8,2471.547,13.29,0.015,258.7
2023-03-19T06:10:03,42.805,6.029,-0.035,0.006,-0.029,104.0,103.0,102.0,13.4,1505.2,318.3,-0.8,1.8,2471.549,13.29,0.035,279.7
2023-03-19T06:13:03,42.805,6.029,-0.029,0.039,-0.037,102.0,103.0,103.0,13.4,1505.2,339.1,-0.7,1.9,2471.489,13.29,0.048,323.4
2023-03-19T06:16:03,42.805,6.029,-0.017,0.032,-0.03,103.0,104.0,102.0,13.3,1505.2,340.9,-0.8,1.8,2471.512,13.29,0.036,332.0
2023-03-19T06:19:03,42.805,6.029,-0.023,0.027,0.0,105.0,104.0,103.0,13.4,1505.2,335.4,-0.8,1.8,2471.497,13.29,0.035,319.6
2023-03-19T06:22:03,42.805,6.029,-0.048,-0.011,-0.041,103.0,104.0,103.0,13.3,1505.2,316.7,-0.8,1.8,2471.54,13.29,0.049,257.1
2023-03-19T06:25:03,42.805,6.029,-0.006,0.024,-0.017,104.0,102.0,103.0,13.3,1505.2,326.0,-0.8,1.8,2471.5,13.29,0.024,346.0
2023-03-19T06:28:03,42.805,6.029,-0.066,-0.003,-0.054,104.0,102.0,102.0,13.3,1505.2,321.2,-0.8,1.8,2471.481,13.29,0.066,267.4
2023-03-19T06:31:03,42.805,6.029,-0.036,-0.009,-0.018,103.0,105.0,102.0,13.4,1505.2,318.6,-0.7,1.8,2471.486,13.29,0.037,256.0
2023-03-19T06:34:03,42.805,6.029,-0.033,0.023,-0.029,103.0,104.0,103.0,13.4,1505.2,320.5,-0.8,1.8,2471.495,13.29,0.04,304.9
2023-03-19T06:37:03,42.805,6.029,-0.024,0.028,-0.014,103.0,102.0,102.0,13.4,1505.2,334.8,-0.8,1.8,2471.487,13.29,0.036,319.4
2023-03-19T06:40:03,42.805,6.029,-0.036,0.022,-0.041,104.0,104.0,101.0,13.4,1505.2,337.3,-0.8,1.8,2471.477,13.29,0.042,301.4
2023-03-19T06:43:03,42.805,6.029,-0.021,0.03,-0.008,105.0,103.0,102.0,13.3,1505.2,318.6,-0.8,1.8,2471.499,13.29,0.036,325.0
2023-03-19T06:46:03,42.805,6.029,-0.023,0.015,-0.016,102.0,105.0,104.0,13.4,1505.2,331.5,-0.7,1.8,2471.483,13.29,0.027,303.1
2023-03-19T06:49:03,42.805,6.029,-0.041,0.0,-0.005,102.0,102.0,102.0,13.4,1505.2,323.4,-0.7,1.9,2471.496,13.29,0.041,270.0
2023-03-19T06:52:03,42.805,6.029,-0.051,0.019,-0.033,104.0,103.0,101.0,13.3,1505.2,340.0,-0.7,1.8,2471.479,13.29,0.054,290.4
2023-03-19T06:55:03,42.805,6.029,-0.054,0.021,-0.014,104.0,103.0,102.0,13.4,1505.2,331.5,-0.8,1.8,2471.492,13.29,0.057,291.2
2023-03-19T06:58:03,42.805,6.029,-0.049,0.019,-0.016,105.0,101.0,102.0,13.4,1505.2,332.4,-0.7,1.8,2471.472,13.29,0.052,291.2
2023-03-19T07:04:03,42.805,6.029,-0.031,0.022,-0.018,103.0,102.0,102.0,13.3,1505.2,334.6,-0.8,1.8,2471.474,13.28,0.038,305.4
2023-03-19T07:07:03,42.805,6.029,-0.015,0.012,-0.018,103.0,103.0,103.0,13.4,1505.2,323.1,-0.8,1.8,2471.513,13.28,0.019,308.7
2023-03-19T07:10:03,42.805,6.029,-0.04,0.01,-0.042,103.0,103.0,102.0,13.3,1505.2,319.9,-0.8,1.8,2471.532,13.29,0.041,284.0
2023-03-19T07:13:03,42.805,6.029,-0.036,0.003,-0.062,103.0,102.0,102.0,13.3,1505.2,324.1,-0.7,1.8,2471.494,13.29,0.036,274.8
2023-03-19T07:16:03,42.805,6.029,-0.056,0.038,-0.037,104.0,103.0,102.0,13.4,1505.2,322.3,-0.7,1.8,2471.501,13.29,0.067,304.2
2023-03-19T07:19:03,42.805,6.029,-0.024,0.023,-0.01,103.0,102.0,102.0,13.4,1505.2,324.5,-0.8,1.8,2471.48,13.29,0.033,313.8
2023-03-19T07:22:03,42.805,6.029,-0.035,0.016,-0.026,104.0,103.0,101.0,13.3,1505.2,316.8,-0.7,1.8,2471.478,13.29,0.038,294.6
2023-03-19T07:25:03,42.805,6.029,-0.041,0.005,-0.058,103.0,102.0,101.0,13.3,1505.2,324.1,-0.8,1.8,2471.487,13.29,0.041,277.0
2023-03-19T07:28:03,42.805,6.029,-0.021,0.034,-0.033,104.0,103.0,102.0,13.4,1505.2,339.9,-0.8,1.8,2471.498,13.29,0.039,328.3
2023-03-19T07:31:03,42.805,6.029,-0.038,0.003,-0.034,104.0,103.0,102.0,13.4,1505.2,321.0,-0.8,1.8,2471.508,13.29,0.038,274.5
2023-03-19T07:34:03,42.805,6.029,-0.015,0.0,-0.015,103.0,104.0,103.0,13.4,1505.2,324.5,-0.8,1.8,2471.465,13.29,0.015,270.0
2023-03-19T07:37:03,42.805,6.029,-0.028,0.035,-0.027,104.0,103.0,102.0,13.4,1505.2,331.3,-0.7,1.8,2471.454,13.29,0.044,321.3
2023-03-19T07:40:03,42.805,6.029,-0.048,0.011,-0.019,102.0,102.0,101.0,13.3,1505.2,325.0,-0.8,1.9,2471.444,13.29,0.049,282.9
2023-03-19T07:43:03,42.805,6.029,-0.027,0.012,-0.041,103.0,103.0,102.0,13.4,1505.2,327.6,-0.8,1.8,2471.459,13.29,0.029,294.0
2023-03-19T07:46:03,42.805,6.029,-0.034,0.019,-0.028,102.0,101.0,102.0,13.4,1505.2,321.7,-0.8,1.8,2471.493,13.29,0.038,299.2
2023-03-19T07:49:03,42.805,6.029,-0.022,0.035,-0.013,104.0,102.0,102.0,13.3,1505.2,335.8,-0.8,1.8,2471.479,13.29,0.041,327.8
2023-03-19T07:52:03,42.805,6.029,-0.007,-0.002,-0.037,103.0,103.0,102.0,13.4,1505.2,329.3,-0.7,1.8,2471.472,13.29,0.007,254.1
2023-03-19T07:55:03,42.805,6.029,-0.054,0.012,-0.041,104.0,104.0,102.0,13.3,1505.2,330.3,-0.8,1.8,2471.491,13.29,0.055,282.5
2023-03-19T07:58:03,42.805,6.029,-0.026,0.015,-0.019,104.0,102.0,102.0,13.3,1505.2,333.4,-0.8,1.8,2471.463,13.29,0.03,300.0
2023-03-19T08:04:03,42.805,6.029,-0.04,0.023,-0.036,103.0,101.0,103.0,13.4,1505.2,330.3,-0.8,1.8,2471.51,13.28,0.046,299.9
2023-03-19T08:07:03,42.805,6.029,-0.032,0.005,-0.038,104.0,104.0,102.0,13.3,1505.2,325.3,-0.7,1.8,2471.527,13.28,0.032,278.9
2023-03-19T08:10:03,42.805,6.029,-0.038,-0.002,-0.067,103.0,103.0,102.0,13.4,1505.2,315.0,-0.8,1.8,2471.491,13.29,0.038,267.0
2023-03-19T08:13:03,42.805,6.029,-0.026,0.015,-0.035,102.0,104.0,102.0,13.4,1505.2,335.2,-0.8,1.8,2471.465,13.29,0.03,300.0
2023-03-19T08:16:03,42.805,6.029,-0.023,0.012,-0.043,103.0,101.0,103.0,13.3,1505.2,327.0,-0.8,1.8,2471.473,13.29,0.025,297.6
2023-03-19T08:19:03,42.805,6.029,-0.052,0.014,-0.038,104.0,104.0,100.0,13.3,1505.2,323.6,-0.8,1.8,2471.428,13.29,0.053,285.1
2023-03-19T08:22:03,42.805,6.029,-0.028,0.01,-0.015,104.0,104.0,102.0,13.4,1505.2,316.1,-0.8,1.8,2471.496,13.29,0.029,289.6
2023-03-19T08:25:03,42.805,6.029,-0.031,0.008,-0.018,104.0,104.0,102.0,13.4,1505.2,333.0,-0.8,1.8,2471.44,13.29,0.032,284.5
2023-03-19T08:28:03,42.805,6.029,-0.041,0.004,0.0,103.0,103.0,103.0,13.4,1505.2,322.9,-0.8,1.8,2471.448,13.29,0.041,275.6
2023-03-19T08:31:03,42.805,6.029,-0.041,0.009,-0.026,104.0,102.0,102.0,13.3,1505.2,325.2,-0.8,1.8,2471.423,13.29,0.041,282.4
2023-03-19T08:34:03,42.805,6.029,-0.049,0.02,-0.015,103.0,104.0,103.0,13.3,1505.2,329.2,-0.7,1.8,2471.451,13.29,0.052,292.2
2023-03-19T08:37:03,42.805,6.029,-0.039,0.01,-0.035,104.0,102.0,102.0,13.4,1505.2,323.6,-0.8,1.8,2471.431,13.29,0.04,284.4
2023-03-19T08:40:03,42.805,6.029,-0.05,0.01,-0.057,104.0,103.0,103.0,13.4,1505.2,323.1,-0.8,1.8,2471.409,13.29,0.05,281.3
2023-03-19T08:43:03,42.805,6.029,-0.05,0.024,-0.023,102.0,102.0,102.0,13.3,1505.2,332.4,-0.8,1.8,2471.371,13.29,0.055,295.6
2023-03-19T08:46:03,42.805,6.029,-0.053,0.029,-0.048,103.0,103.0,102.0,13.3,1505.2,333.4,-0.7,1.8,2471.441,13.29,0.06,298.7
2023-03-19T08:49:03,42.805,6.029,-0.04,0.003,-0.017,102.0,104.0,103.0,13.4,1505.2,319.7,-0.8,1.8,2471.417,13.29,0.04,274.3
2023-03-19T08:52:03,42.805,6.029,-0.053,0.015,-0.02,103.0,102.0,102.0,13.3,1505.2,322.0,-0.8,1.8,2471.433,13.29,0.055,285.8
2023-03-19T08:55:03,42.805,6.029,-0.037,0.038,-0.017,102.0,102.0,102.0,13.4,1505.2,339.5,-0.8,1.8,2471.419,13.29,0.053,315.8
2023-03-19T08:58:03,42.805,6.029,-0.042,0.021,-0.009,105.0,103.0,102.0,13.4,1505.2,317.2,-0.8,1.8,2471.396,13.29,0.046,296.6
2023-03-19T09:04:03,42.805,6.029,-0.064,0.018,-0.046,104.0,102.0,103.0,13.4,1505.2,323.1,-0.7,1.8,2471.427,13.28,0.066,285.7
2023-03-19T09:07:03,42.805,6.029,-0.045,0.003,-0.016,103.0,103.0,102.0,13.4,1505.2,324.1,-0.8,1.8,2471.456,13.28,0.045,273.8
2023-03-19T09:10:03,42.805,6.029,-0.035,0.021,-0.023,102.0,104.0,103.0,13.4,1505.2,324.9,-0.8,1.8,2471.441,13.29,0.04,301.0
2023-03-19T09:13:03,42.805,6.029,-0.033,0.006,-0.011,104.0,103.0,102.0,13.3,1505.2,326.5,-0.8,1.8,2471.434,13.29,0.033,280.3
2023-03-19T09:16:03,42.805,6.029,-0.045,0.029,-0.02,103.0,103.0,102.0,13.3,1505.2,341.2,-0.8,1.8,2471.425,13.29,0.053,302.8
2023-03-19T09:19:03,42.805,6.029,-0.055,0.019,-0.032,103.0,103.0,103.0,13.4,1505.2,319.9,-0.7,1.8,2471.413,13.29,0.058,289.1
2023-03-19T09:22:03,42.805,6.029,-0.035,0.028,-0.026,104.0,103.0,102.0,13.3,1505.2,330.1,-0.7,1.8,2471.409,13.29,0.044,308.7
2023-03-19T09:25:03,42.805,6.029,-0.039,0.025,-0.031,103.0,103.0,103.0,13.3,1505.2,334.8,-0.8,1.8,2471.403,13.29,0.046,302.7
2023-03-19T09:28:03,42.805,6.029,-0.018,0.009,-0.022,103.0,104.0,102.0,13.3,1505.2,327.4,-0.8,1.8,2471.374,13.29,0.02,296.6
2023-03-19T09:31:03,42.805,6.029,-0.047,0.014,-0.022,104.0,105.0,101.0,13.4,1505.2,319.9,-0.7,1.8,2471.432,13.29,0.049,286.6
2023-03-19T09:34:03,42.805,6.029,-0.029,0.013,-0.02,104.0,105.0,103.0,13.4,1505.2,339.4,-0.8,1.8,2471.376,13.29,0.031,294.1
2023-03-19T09:37:03,42.805,6.029,-0.033,-0.002,-0.066,104.0,104.0,102.0,13.3,1505.2,335.6,-0.8,1.8,2471.401,13.29,0.033,266.5
2023-03-19T09:40:03,42.805,6.029,-0.021,0.03,-0.026,104.0,104.0,103.0,13.3,1505.2,330.6,-0.8,1.8,2471.401,13.29,0.036,325.0
2023-03-19T09:43:03,42.805,6.029,-0.027,0.009,-0.04,104.0,103.0,102.0,13.4,1505.2,325.4,-0.8,1.8,2471.366,13.29,0.028,288.4
2023-03-19T09:46:03,42.805,6.029,-0.018,0.024,-0.009,104.0,104.0,103.0,13.4,1505.2,337.8,-0.8,1.8,2471.409,13.29,0.03,323.1
2023-03-19T09:49:03,42.805,6.029,-0.035,0.026,-0.057,104.0,104.0,102.0,13.4,1505.2,326.0,-0.7,1.8,2471.392,13.29,0.043,306.6
2023-03-19T09:52:03,42.805,6.029,-0.031,0.015,0.011,104.0,103.0,102.0,13.4,1505.2,327.0,-0.7,1.8,2471.396,13.29,0.034,295.8
2023-03-19T09:55:03,42.805,6.029,-0.025,0.03,0.012,104.0,103.0,102.0,13.3,1505.2,329.8,-0.8,1.8,2471.367,13.29,0.039,320.2